Change the Weather History Date:

Friday, March 22, 2013

  Actual Average Record
Temperature  
Mean Temperature 32 °F 51 °F  
Max Temperature 34 °F 62 °F 90 °F (1995)
Min Temperature 30 °F 39 °F 16 °F (2002)
Degree Days  
Heating Degree Days 33 15  
Month to date heating degree days 477 390  
Since 1 July heating degree days 3381 3562  
Cooling Degree Days 0 0  
Month to date cooling degree days 6 0  
Year to date cooling degree days 7 0  
Moisture  
Dew Point 32 °F    
Average Humidity 96    
Maximum Humidity 100    
Minimum Humidity 92    
Precipitation  
Precipitation 0.28 in 0.13 in 2.30 in (1892)
Month to date precipitation 2.35 2.60  
Year to date precipitation 8.97 7.80  
Snow  
Snow 0.00 in 0.00 in 2.00 in (1955)
Month to date snowfall 1.8 2.0  
Since 1 July snowfall 4.6 11.2  
Snow Depth 1.00 in    
Sea Level Pressure  
Sea Level Pressure 29.91 in    
Wind  
Wind Speed 7 mph (ESE)    
Max Wind Speed 14 mph    
Max Gust Speed 16 mph    
Visibility 2 miles    
Events Fog , Rain    
T = Trace of Precipitation, MM = Missing Value Source: NWS Daily Summary

Daily Weather History Graph

Daily Weather History Graph

Search for Another Location

Airport or City:

Trip Planner

Search our weather history database for the weather conditions in past years. The results will help you decide how hot, cold, wet, or windy it might be!

Date:

Astronomy

Mar. 22, 2013 Rise Set
Actual Time 7:12 AM CDT 7:26 PM CDT
Civil Twilight 6:47 AM CDT 7:52 PM CDT
Nautical Twilight 6:17 AM CDT 8:22 PM CDT
Astronomical Twilight 5:46 AM CDT 8:52 PM CDT
Moon 3:01 PM CDT (3/22) 4:06 AM CDT (3/22)
Length of Visible Light 13h 04m
Length of Day
12h 13m
Waxing Gibbous, 77% of the Moon is Illuminated
Mar 22
Waxing Gibbous
Mar 27
Full
Apr 2
Last Quarter
Apr 10
New
Apr 18
First Quarter

Hourly Weather History & Observations

Time (CDT) Temp. Windchill Dew Point Humidity Pressure Visibility Wind Dir Wind Speed Gust Speed Precip Events Conditions
12:46 AM 30.2 °F 20.2 °F 28.4 °F 93% 29.87 in 3.0 mi ESE 12.7 mph - 0.04 in Rain Light Freezing Rain
12:53 AM 30.0 °F 22.4 °F 28.9 °F 96% 29.90 in 5.0 mi ESE 8.1 mph - 0.04 in Rain Light Freezing Rain
1:53 AM 30.9 °F 26.2 °F 28.9 °F 92% 29.89 in 7.0 mi Variable 4.6 mph - 0.03 in Rain Light Freezing Rain
2:10 AM 30.2 °F 23.4 °F 30.2 °F 100% 29.86 in 7.0 mi ESE 6.9 mph - 0.00 in   Overcast
2:39 AM 30.2 °F 26.7 °F 30.2 °F 100% 29.87 in 6.0 mi East 3.5 mph - 0.00 in Rain Light Freezing Rain
2:53 AM 30.9 °F 24.3 °F 30.0 °F 96% 29.90 in 4.0 mi SE 6.9 mph - 0.04 in Rain Light Freezing Rain
3:12 AM 30.2 °F 21.3 °F 30.2 °F 100% 29.87 in 5.0 mi SE 10.4 mph - 0.03 in Rain Light Freezing Rain
3:34 AM 30.2 °F 21.3 °F 30.2 °F 100% 29.86 in 4.0 mi ESE 10.4 mph - 0.06 in Rain Light Freezing Rain
3:53 AM 30.9 °F 23.5 °F 30.0 °F 96% 29.90 in 4.0 mi SE 8.1 mph - 0.11 in Rain Light Freezing Rain
4:19 AM 30.2 °F 21.3 °F 30.2 °F 100% 29.85 in 5.0 mi ESE 10.4 mph - 0.04 in Rain Light Freezing Rain
4:32 AM 30.2 °F 21.3 °F 30.2 °F 100% 29.85 in 5.0 mi SE 10.4 mph - 0.07 in Rain Light Freezing Rain
4:53 AM 32.0 °F 25.6 °F 30.9 °F 96% 29.89 in 5.0 mi ESE 6.9 mph - 0.09 in Rain Light Freezing Rain
5:04 AM 32.0 °F 24.8 °F 30.2 °F 93% 29.86 in 8.0 mi ESE 8.1 mph - 0.01 in Rain Light Freezing Rain
5:42 AM 32.0 °F 24.2 °F 30.2 °F 93% 29.86 in 10.0 mi East 9.2 mph - 0.01 in   Overcast
5:53 AM 32.0 °F 24.8 °F 30.9 °F 96% 29.89 in 8.0 mi East 8.1 mph - 0.01 in   Overcast
6:28 AM 32.0 °F 24.8 °F 30.2 °F 93% 29.88 in 2.0 mi ESE 8.1 mph - N/A   Overcast
6:35 AM 32.0 °F 26.4 °F 30.2 °F 93% 29.89 in 1.2 mi ESE 5.8 mph - N/A   Overcast
6:43 AM 32.0 °F 24.8 °F 30.2 °F 93% 29.89 in 0.8 mi East 8.1 mph - N/A   Mist
6:53 AM 32.0 °F 26.4 °F 30.9 °F 96% 29.93 in 0.5 mi ESE 5.8 mph - N/A Fog Fog
7:12 AM 32.0 °F 25.6 °F 30.2 °F 93% 29.90 in 0.8 mi East 6.9 mph - N/A   Mist
7:34 AM 32.0 °F 25.6 °F 30.2 °F 93% 29.91 in 0.5 mi East 6.9 mph - N/A Fog Fog
7:42 AM 32.0 °F 25.6 °F 30.2 °F 93% 29.91 in 0.2 mi ESE 6.9 mph - N/A Fog Fog
7:53 AM 32.0 °F 23.6 °F 30.9 °F 96% 29.93 in 0.2 mi ESE 10.4 mph - N/A Fog Fog
8:53 AM 32.0 °F 24.2 °F 30.9 °F 96% 29.94 in 0.2 mi ESE 9.2 mph - N/A Fog Fog
9:53 AM 30.9 °F 22.2 °F 30.9 °F 100% 29.95 in 0.2 mi ESE 10.4 mph - N/A Fog Light Freezing Fog
10:53 AM 30.9 °F 22.2 °F 30.9 °F 100% 29.95 in 0.2 mi ESE 10.4 mph - N/A Fog Light Freezing Fog
11:53 AM 32.0 °F 24.8 °F 32.0 °F 100% 29.95 in 0.2 mi SE 8.1 mph - N/A Fog Fog
12:53 PM 32.0 °F 23.6 °F 32.0 °F 100% 29.93 in 0.2 mi ESE 10.4 mph - N/A Fog Fog
1:53 PM 32.0 °F 25.6 °F 32.0 °F 100% 29.93 in 0.2 mi ESE 6.9 mph - N/A Fog Fog
2:03 PM 32.0 °F 26.4 °F 32.0 °F 100% 29.90 in 0.5 mi East 5.8 mph - N/A Fog Fog
2:13 PM 32.0 °F 27.5 °F 32.0 °F 100% 29.90 in 0.2 mi ENE 4.6 mph - N/A Fog Fog
2:35 PM 32.0 °F 28.7 °F 32.0 °F 100% 29.90 in 0.5 mi NE 3.5 mph - N/A Fog Fog
2:53 PM 32.0 °F 26.4 °F 32.0 °F 100% 29.92 in 0.5 mi East 5.8 mph - N/A Fog Fog
3:18 PM 33.8 °F 29.6 °F 33.8 °F 100% 29.89 in 0.2 mi ESE 4.6 mph - N/A Fog Fog
3:53 PM 33.1 °F 27.7 °F 32.0 °F 96% 29.92 in 0.2 mi ENE 5.8 mph - N/A Fog Fog
4:32 PM 33.8 °F 29.6 °F 33.8 °F 100% 29.89 in 0.5 mi East 4.6 mph - N/A Fog Fog
4:53 PM 34.0 °F 31.0 °F 33.1 °F 96% 29.92 in 0.2 mi ENE 3.5 mph - N/A Fog Fog
5:06 PM 33.8 °F 28.6 °F 33.8 °F 100% 29.89 in 0.5 mi ENE 5.8 mph - N/A Fog Fog
5:53 PM 34.0 °F 29.8 °F 33.1 °F 96% 29.93 in 0.5 mi ENE 4.6 mph - N/A Fog Fog
6:05 PM 33.8 °F 28.6 °F 33.8 °F 100% 29.90 in 0.8 mi East 5.8 mph - N/A   Overcast
6:15 PM 33.8 °F 30.8 °F 33.8 °F 100% 29.91 in 0.5 mi East 3.5 mph - N/A Fog Fog
6:33 PM 33.8 °F 29.6 °F 33.8 °F 100% 29.90 in 0.2 mi East 4.6 mph - N/A Fog Fog
6:53 PM 34.0 °F 29.8 °F 34.0 °F 100% 29.93 in 0.2 mi East 4.6 mph - N/A Fog Fog
7:12 PM 33.8 °F 28.6 °F 33.8 °F 100% 29.91 in 0.8 mi SE 5.8 mph - N/A   Overcast
7:35 PM 33.8 °F 28.6 °F 33.8 °F 100% 29.91 in 0.5 mi ESE 5.8 mph - N/A Fog Fog
7:42 PM 33.8 °F 27.7 °F 33.8 °F 100% 29.91 in 0.2 mi East 6.9 mph - N/A Fog Fog
7:53 PM 34.0 °F 28.8 °F 34.0 °F 100% 29.95 in 0.2 mi ESE 5.8 mph - N/A Fog Fog
8:53 PM 34.0 °F 28.8 °F 34.0 °F 100% 29.95 in 0.2 mi ESE 5.8 mph - N/A Fog Fog
9:03 PM 33.8 °F 27.7 °F 33.8 °F 100% 29.92 in 0.5 mi ESE 6.9 mph - N/A Fog Fog
9:07 PM 33.8 °F 27.0 °F 33.8 °F 100% 29.92 in 1.0 mi SE 8.1 mph - N/A   Mist
9:24 PM 33.8 °F 28.6 °F 33.8 °F 100% 29.93 in 2.0 mi ESE 5.8 mph - N/A   Overcast
9:46 PM 33.8 °F 27.0 °F 33.8 °F 100% 29.93 in 1.5 mi ESE 8.1 mph - N/A   Overcast
9:53 PM 34.0 °F 27.2 °F 33.1 °F 96% 29.96 in 1.0 mi ESE 8.1 mph - N/A   Overcast
10:02 PM 33.8 °F 26.4 °F 33.8 °F 100% 29.92 in 0.8 mi East 9.2 mph - N/A   Mist
10:13 PM 33.8 °F 25.8 °F 33.8 °F 100% 29.92 in 0.5 mi East 10.4 mph - N/A Fog Fog
10:30 PM 33.8 °F 27.0 °F 33.8 °F 100% 29.93 in 0.2 mi ESE 8.1 mph - N/A Fog Fog
10:53 PM 34.0 °F 28.0 °F 34.0 °F 100% 29.98 in 0.2 mi SE 6.9 mph - N/A Fog Fog
11:21 PM 33.8 °F 27.7 °F 33.8 °F 100% 29.95 in 0.5 mi SE 6.9 mph - N/A Fog Fog
11:39 PM 33.8 °F 27.7 °F 33.8 °F 100% 29.95 in 0.2 mi SE 6.9 mph - N/A Fog Fog
11:53 PM 34.0 °F 27.2 °F 34.0 °F 100% 29.97 in 0.5 mi ESE 8.1 mph - N/A Fog Fog